Location: Newark
(47.5833°N, 8.1500°E)
Time: 14:15:20
(UTC+00:00)

Transit 2A - Visible Passes

Search period start: 31 October 2020 00:00
Search period end: 10 November 2020 00:00
Orbit: 593 x 965 km, 66.7° (Epoch: 30 October)

Date Brightness Start Highest point End Pass type
(mag) Time Alt. Az. Time Alt. Az. Time Alt. Az.
31 Oct 8.8 01:48:44 14° NNE 01:48:44 14° NNE 01:49:41 10° NNE visible
31 Oct 8.4 03:29:13 14° NNW 03:29:33 14° NNW 03:32:29 10° NNE visible
31 Oct 8.5 05:12:54 10° NNW 05:15:31 13° NNE 05:18:03 10° NE visible
01 Nov 9.2 01:15:35 10° NNE 01:15:35 10° NNE 01:15:36 10° NNE visible
01 Nov 8.5 02:56:04 15° N 02:56:04 15° N 02:58:20 10° NNE visible
01 Nov 8.5 04:38:36 10° NNW 04:40:50 12° N 04:43:00 10° NNE visible
02 Nov 8.7 02:22:55 14° N 02:22:55 14° N 02:24:13 10° NNE visible
02 Nov 8.6 04:04:05 10° NNW 04:06:07 12° N 04:08:07 10° NNE visible
03 Nov 9.0 01:49:46 11° NNE 01:49:46 11° NNE 01:50:09 10° NNE visible
03 Nov 8.6 03:30:16 11° NNW 03:31:25 12° N 03:33:27 10° NNE visible
03 Nov 8.3 05:13:38 10° NNW 05:17:16 16° NNE 05:20:41 10° ENE visible
04 Nov 8.6 02:57:07 12° N 02:57:07 12° N 02:59:02 10° NNE visible
04 Nov 8.5 04:39:32 10° NNW 04:42:38 14° NNE 04:45:36 10° NE visible
05 Nov 8.8 02:23:58 12° N 02:23:58 12° N 02:24:47 10° NNE visible
05 Nov 8.6 04:05:23 10° NNW 04:07:59 13° NNE 04:10:29 10° NE visible
06 Nov 8.6 03:31:20 10° NNW 03:33:18 12° N 03:35:24 10° NNE visible
06 Nov 8.0 05:14:12 10° NNW 05:18:47 24° NNE 05:23:01 10° E visible
07 Nov 8.7 02:58:14 11° N 02:58:36 11° N 03:00:27 10° NNE visible
07 Nov 8.2 04:40:08 10° NNW 04:44:16 20° NNE 04:48:08 10° ENE visible
08 Nov 8.9 02:25:08 11° N 02:25:08 11° N 02:25:45 10° NNE visible
08 Nov 8.4 04:06:05 10° NNW 04:09:42 17° NNE 04:13:08 10° ENE visible
09 Nov 8.5 03:32:34 11° N 03:35:05 14° NNE 03:38:03 10° NE visible
09 Nov 7.2 05:14:46 10° NNW 05:20:02 39° NE 05:24:48 10° ESE visible
